Location: Cosy Dell
(34.2789°N, 117.4537°W)
Time: 11:59:58
(UTC+00:00)

Meteor 2-11 Rocket - Pass Details

Date: 14 July 2020
Orbit: 939 x 957 km, 82.5° (Epoch: 08 August)

Event Time Altitude Azimuth Distance (km) Brightness Sun altitude
Exits shadow 10:28:52 43° 182° (S) 1,301 4.8 -23.3°
Maximum altitude 10:31:02 87° 95° (E) 948 4.4 -23.1°
Drops below altitude 10° 10:37:08 10° 7° (N) 2,660 7.6 -22.3°
Sets 10:39:37 0° 8° (N) 3,607 8.4 -21.9°
